This is the latest recevied weather packets stored in our database for station/object AA8FM-13. If no packets are shown the sender has not sent any weather packets the latest 1 day(s).
| Time | Temp. | Humidity | Pressure | Rain* | Wind** | Luminosity | Snow |
|---|---|---|---|---|---|---|---|
| 1778034497 | 19.44° C | 57% | 1005.9 hPa | 0 mm | - | 0 W/m² | - |
| 1778034195 | 19.44° C | 56% | 1005.9 hPa | 0 mm | - | 0 W/m² | - |
| 1778033893 | 19.44° C | 54% | 1006 hPa | 0 mm | - | 0 W/m² | - |
| 1778033589 | 20° C | 54% | 1006 hPa | 0 mm | - | 0 W/m² | - |
| 1778033286 | 20° C | 53% | 1006 hPa | 0 mm | - | 0 W/m² | - |
| 1778032984 | 20° C | 54% | 1006.1 hPa | 0 mm | - | 0 W/m² | - |
| 1778032681 | 20.56° C | 53% | 1006.3 hPa | 0 mm | - | 0 W/m² | - |
| 1778032379 | 20.56° C | 53% | 1006.4 hPa | 0 mm | - | 0 W/m² | - |
| 1778032075 | 20.56° C | 52% | 1006.4 hPa | 0 mm | - | 0 W/m² | - |
| 1778031772 | 20.56° C | 55% | 1006.6 hPa | 0 mm | - | 0 W/m² | - |
| 1778031469 | 20° C | 56% | 1006.5 hPa | 0 mm | - | 0 W/m² | - |
| 1778031166 | 20° C | 55% | 1006.4 hPa | 0 mm | - | 0 W/m² | - |
| 1778030257 | 19.44° C | 58% | 1006.3 hPa | 0 mm | - | 0 W/m² | - |
| 1778029953 | 19.44° C | 58% | 1006.1 hPa | 0 mm | - | 0 W/m² | - |
| 1778029348 | 20° C | 55% | 1005.9 hPa | 0 mm | - | 0 W/m² | - |
| 1778029045 | 20° C | 56% | 1006 hPa | 0 mm | - | 0 W/m² | - |
| 1778028742 | 20° C | 54% | 1005.7 hPa | 0 mm | - | 0 W/m² | - |
| 1778028438 | 19.44° C | 54% | 1006.1 hPa | 0 mm | - | 0 W/m² | - |
| 1778028136 | 19.44° C | 58% | 1006 hPa | 0 mm | - | 0 W/m² | - |
| 1778027224 | 20° C | 53% | 1006.2 hPa | 0 mm | - | 0 W/m² | - |
| 1778026610 | 20.56° C | 55% | 1006.2 hPa | 0 mm | - | 1 W/m² | - |
| 1778026308 | 20.56° C | 54% | 1006.2 hPa | 0 mm | - | 2 W/m² | - |
| 1778026005 | 21.11° C | 51% | 1006.2 hPa | 0 mm | - | 3 W/m² | - |
* Rain latest hour (hover to see other rain measurements)
** Current wind speed in m/s (hover to see current wind gust speed)